Location: Capannuccia
(43.7000°N, 11.3000°E)
Time: 09:11:12
(UTC+00:00)

STARLINK-1312 - Pass Details

Date: 04 October 2020
Orbit: 549 x 550 km, 53.0° (Epoch: 23 October)

Event Time Altitude Azimuth Distance (km) Brightness Sun altitude
Exits shadow 03:57:07 15° 213° (SSW) 1,504 5.5 -15.1°
Maximum altitude 04:00:20 54° 139° (SE) 670 4.2 -14.5°
Drops below altitude 10° 04:04:23 10° 62° (ENE) 1,824 7.4 -13.8°
Sets 04:06:39 0° 58° (ENE) 2,721 8.4 -13.4°
